Погода в Сан Исидро де Эль Дженерал

Коста-Рика     9°22′22″N   83°42′03″W
темп.,
°C
ветер,
м/с
пор.,
м/с
влажн.,
%
обл.,
%
осадки,
мм/ч
давл.,
гПа
погр.,
м
27 февраля, сб
сб2700:00+22св127650 0.0 101236
03:00+21св117893 0.0 100941
06:00+21св128047 0.0 101041
09:00+27ююз22640 0.0 1012615
12:00+28юз32595 0.0 1010891
15:00+27юз226218 0.1 1008660
18:00+23зюз018010 0.1 1009165
21:00+22ссв12803 0.0 101235
28 февраля, вс
вс2800:00+21св22766 0.0 101136
03:00+21св227295 0.0 100942
06:00+21св226697 0.0 101145
09:00+27юз2154100 0.0 1012603
12:00+29юз3253100 0.0 1010962
15:00+27юз335779 0.0 1007670
18:00+22в007647 0.0 100836
21:00+22св22650 0.0 101054
1 марта, пн
пн100:00+21ссв22570 0.0 101042
03:00+21св226048 0.0 100939
06:00+21св226753 0.0 101036
09:00+28ююз2152100 0.0 1012523
12:00+29юз325287 0.0 1010811
15:00+28юз225514 0.0 1007584
18:00+23ю117943 0.1 100948
21:00+22св1276100 0.0 101241
2 марта, вт
вт200:00+21св226896 0.0 101139
03:00+21св226741 0.0 101041
06:00+21св226645 0.0 101140
09:00+27юз21578 0.0 1013590
12:00+28юз32575 0.0 1011924
15:00+27юз226323 0.3 1009568
18:00+23ю118220 0.4 101056
21:00+22ссв12791 0.1 101343
3 марта, ср
ср300:00+21св22751 0.2 101341
03:00+21св226510 0.0 101243
06:00+20св225721 0.0 101345
09:00+27ююз225225 0.0 1015695
12:00+28юз325436 0.0 1012967
15:00+27юз225810 0.0 1010682
18:00+22в008116 0.1 101138
21:00+22св226982 0.0 101348